TimeEST,TemperatureF,Dew PointF,Humidity,Sea Level PressureIn,VisibilityMPH,Wind Direction,Wind SpeedMPH,Gust SpeedMPH,PrecipitationIn,Events,Conditions,WindDirDegrees,DateUTC
12:53 AM,55.0,52.0,89,30.15,10.0,North,3.5,-,N/A,,Overcast,350,2013-11-26 05:53:00
1:53 AM,63.0,59.0,87,30.12,10.0,ESE,9.2,-,N/A,,Mostly Cloudy,120,2013-11-26 06:53:00
2:53 AM,64.9,59.0,81,30.09,10.0,ESE,9.2,-,N/A,,Scattered Clouds,110,2013-11-26 07:53:00
3:53 AM,64.9,60.1,84,30.07,10.0,ESE,9.2,-,N/A,,Partly Cloudy,110,2013-11-26 08:53:00
4:53 AM,64.9,60.1,84,30.06,10.0,ESE,9.2,-,N/A,,Partly Cloudy,110,2013-11-26 09:53:00
5:53 AM,64.9,61.0,87,30.03,10.0,ESE,10.4,-,N/A,,Partly Cloudy,110,2013-11-26 10:53:00
6:53 AM,64.9,62.1,90,30.01,10.0,ESE,11.5,-,N/A,,Scattered Clouds,120,2013-11-26 11:53:00
7:53 AM,66.0,62.1,87,29.99,10.0,ESE,12.7,-,N/A,,Partly Cloudy,120,2013-11-26 12:53:00
8:53 AM,64.9,63.0,93,29.99,7.0,SE,10.4,-,0.00,Rain,Light Rain,130,2013-11-26 13:53:00
9:53 AM,66.0,64.9,96,29.98,4.0,SE,12.7,-,0.10,Rain,Light Rain,130,2013-11-26 14:53:00
10:45 AM,66.2,64.4,94,29.96,1.8,SE,10.4,-,0.13,Rain,Heavy Rain,140,2013-11-26 15:45:00
10:53 AM,66.0,64.9,96,29.95,1.2,SE,11.5,-,0.21,Rain,Heavy Rain,130,2013-11-26 15:53:00
11:03 AM,66.2,64.4,94,29.94,2.0,SE,11.5,-,0.04,Rain,Light Rain,140,2013-11-26 16:03:00
11:10 AM,66.2,64.4,94,29.93,3.0,SE,11.5,18.4,0.05,Rain,Light Rain,130,2013-11-26 16:10:00
11:25 AM,66.2,64.4,94,29.93,3.0,SE,11.5,-,0.07,Rain,Light Rain,140,2013-11-26 16:25:00
11:37 AM,66.2,64.4,94,29.92,3.0,SE,12.7,-,0.09,Rain,Rain,130,2013-11-26 16:37:00
11:45 AM,66.2,64.4,94,29.90,2.5,SE,11.5,-,0.11,Rain,Rain,130,2013-11-26 16:45:00
11:53 AM,66.0,64.9,96,29.90,2.5,SE,13.8,-,0.14,Rain,Rain,130,2013-11-26 16:53:00
12:11 PM,66.2,64.4,94,29.88,1.8,SE,13.8,-,0.08,Rain,Rain,130,2013-11-26 17:11:00
12:18 PM,66.2,64.4,94,29.87,2.0,SE,12.7,-,0.10,Rain,Rain,130,2013-11-26 17:18:00
12:26 PM,66.2,64.4,94,29.85,1.2,SE,13.8,20.7,0.17,Rain,Heavy Rain,130,2013-11-26 17:26:00
12:33 PM,66.2,66.2,100,29.84,1.5,SE,13.8,23.0,0.20,Rain,Heavy Rain,130,2013-11-26 17:33:00
12:40 PM,66.2,66.2,100,29.84,2.0,SSE,10.4,18.4,0.23,Rain,Rain,150,2013-11-26 17:40:00
12:51 PM,66.2,66.2,100,29.84,4.0,SE,11.5,18.4,0.23,Rain,Light Rain,140,2013-11-26 17:51:00
12:53 PM,66.0,66.0,100,29.84,4.0,SSE,9.2,18.4,0.24,Rain,Light Rain,150,2013-11-26 17:53:00
1:09 PM,66.2,66.2,100,29.83,1.8,SSE,12.7,20.7,0.07,Rain,Heavy Rain,160,2013-11-26 18:09:00
1:24 PM,66.2,66.2,100,29.82,3.0,SSE,13.8,23.0,0.11,Rain,Light Rain,150,2013-11-26 18:24:00
1:28 PM,66.2,66.2,100,29.82,2.5,SSE,11.5,23.0,0.13,Rain,Light Rain,150,2013-11-26 18:28:00
1:48 PM,66.2,64.4,94,29.82,1.5,SSW,11.5,26.5,0.24,Rain,Rain,210,2013-11-26 18:48:00
1:53 PM,66.9,66.0,97,29.81,4.0,South,17.3,26.5,0.24,Rain,Light Rain,190,2013-11-26 18:53:00
2:02 PM,66.2,66.2,100,29.80,6.0,South,9.2,24.2,0.00,Rain,Light Rain,170,2013-11-26 19:02:00
2:09 PM,66.2,66.2,100,29.80,1.8,South,11.5,20.7,0.06,Rain,Heavy Rain,170,2013-11-26 19:09:00
2:24 PM,66.2,66.2,100,29.80,3.0,SSW,10.4,19.6,0.15,Rain,Light Rain,200,2013-11-26 19:24:00
2:53 PM,66.0,64.9,96,29.78,4.0,South,9.2,17.3,0.15,,Overcast,180,2013-11-26 19:53:00
3:06 PM,66.2,66.2,100,29.77,5.0,South,10.4,18.4,N/A,,Overcast,180,2013-11-26 20:06:00
3:36 PM,66.2,66.2,100,29.76,6.0,South,12.7,19.6,N/A,,Overcast,180,2013-11-26 20:36:00
3:53 PM,66.9,66.0,97,29.76,5.0,South,10.4,18.4,N/A,,Overcast,180,2013-11-26 20:53:00
4:53 PM,66.0,64.0,93,29.75,5.0,South,8.1,-,N/A,,Overcast,170,2013-11-26 21:53:00
5:16 PM,64.4,64.4,100,29.75,4.0,SSE,9.2,-,N/A,,Overcast,160,2013-11-26 22:16:00
5:43 PM,66.2,64.4,94,29.74,6.0,SSE,10.4,18.4,N/A,,Overcast,160,2013-11-26 22:43:00
5:53 PM,66.0,64.9,96,29.74,6.0,South,8.1,-,N/A,,Overcast,170,2013-11-26 22:53:00
6:01 PM,66.2,64.4,94,29.74,6.0,South,8.1,17.3,N/A,,Overcast,170,2013-11-26 23:01:00
6:21 PM,66.2,64.4,94,29.74,5.0,SSE,9.2,17.3,N/A,,Overcast,160,2013-11-26 23:21:00
6:53 PM,66.0,64.9,96,29.75,5.0,South,9.2,16.1,N/A,,Overcast,180,2013-11-26 23:53:00
7:01 PM,66.2,64.4,94,29.75,5.0,South,10.4,17.3,0.00,Rain,Light Rain,170,2013-11-27 00:01:00
7:53 PM,64.9,64.0,97,29.75,6.0,South,8.1,17.3,0.00,,Mostly Cloudy,170,2013-11-27 00:53:00
8:01 PM,66.2,64.4,94,29.75,7.0,South,9.2,18.4,N/A,,Overcast,170,2013-11-27 01:01:00
8:16 PM,66.2,64.4,94,29.75,6.0,South,9.2,-,N/A,,Mostly Cloudy,180,2013-11-27 01:16:00
8:53 PM,64.9,64.0,97,29.74,6.0,South,8.1,-,0.01,Rain,Light Rain,170,2013-11-27 01:53:00
9:53 PM,64.9,64.0,97,29.71,5.0,South,8.1,-,0.02,,Mostly Cloudy,180,2013-11-27 02:53:00
10:02 PM,64.4,64.4,100,29.71,5.0,South,9.2,-,N/A,,Mostly Cloudy,170,2013-11-27 03:02:00
10:25 PM,64.4,64.4,100,29.71,6.0,South,10.4,-,0.00,Rain,Light Rain,170,2013-11-27 03:25:00
10:45 PM,64.4,64.4,100,29.71,5.0,South,9.2,17.3,0.00,,Mostly Cloudy,170,2013-11-27 03:45:00
10:53 PM,64.9,64.0,97,29.71,5.0,South,9.2,-,0.00,,Mostly Cloudy,180,2013-11-27 03:53:00
11:13 PM,66.2,64.4,94,29.71,5.0,South,8.1,-,0.01,Rain,Light Rain,180,2013-11-27 04:13:00
11:53 PM,66.0,66.0,100,29.69,4.0,Calm,Calm,-,0.07,Rain,Light Rain,0,2013-11-27 04:53:00